Weather Roundup
Issued by NWS Corpus Christi, TX

Home | Current Version | Previous Version | Text Only | Print | Product List | Glossary On
Versions: 1 2 3 4 5 6 7 8 9 10 11 12 13 14 15 16 17 18 19 20 21 22 23 24 25 26 27 28 29 30 31 32 33 34 35 36 37 38 39 40 41 42 43 44 45 46 47 48 49 50
649
ASUS44 KCRP 211410
HRRCRP

SOUTH TEXAS REGIONAL WEATHER ROUNDUP
NATIONAL WEATHER SERVICE CORPUS CHRISTI TX
800 AM CST SUN JAN 21 2018


TXZ229>244-211500-
...CORPUS CHRISTI AREA OBSERVATIONS...

CITY           SKY/WX    TMP DP  RH WIND       PRES   REMARKS
CORPUS CHRISTI FOG       65  65 100 S13       29.92S VSB 1/2
NAS CORPUS CHR CLOUDY    65  64  97 S12       29.93R FOG
ROCKPORT       FOG       58  58 100 SE6       29.94R VSB<1/4
KINGSVILLE NAS CLOUDY    67  66  97 S12       29.91S FOG
ALICE          CLOUDY    67  64  90 S10       29.90S
$$

...VICTORIA AREA OBSERVATIONS...

CITY           SKY/WX    TMP DP  RH WIND       PRES   REMARKS
PORT LAVACA    NOT AVBL
VICTORIA       CLOUDY    67  65  93 S13       29.95R
BEEVILLE       CLOUDY    66  65  97 S14       29.93R
PLEASANTON     CLOUDY    65  64  93 S8        29.91S
SAN ANTONIO    CLOUDY    64  61  90 SE14      29.92S
$$

...LAREDO AREA OBSERVATIONS...

CITY           SKY/WX    TMP DP  RH WIND       PRES   REMARKS
LAREDO         CLEAR     57  57 100 SE6       29.88S FOG
COTULLA        FOG       57  57 100 E6        29.88S VSB 1
DEL RIO        CLOUDY    56  56 100 SE8       29.87R FOG
MCALLEN        CLOUDY    69  65  86 SE20G28   29.90R
HEBBRONVILLE   CLOUDY    64  62  93 S15G21    29.89F FOG
$$

...OTHER TEXAS OBSERVATIONS...

CITY           SKY/WX    TMP DP  RH WIND       PRES   REMARKS
BROWNSVILLE    CLOUDY    65  64  97 S8        29.95R FOG
HOUSTON        CLOUDY    66  64  93 SE10      29.99S
COL. STATION   CLOUDY    67  64  90 S14       29.95R
AUSTIN         CLOUDY    65  65 100 S9        29.92S
WACO           CLOUDY    63  61  93 S12       29.90S
FORT WORTH     MOCLDY    65  60  84 S15       29.87S
WICHITA FALLS  MOCLDY    48  46  93 SE10      29.79F
LUBBOCK        PTCLDY    43  33  68 SW14      29.79R
EL PASO        PTCLDY    42  22  44 W28G41    29.99R
$$

...MARINE OBSERVATIONS...

STATION/POSITION TIME  SKY/WX   TEMP    WIND        PRES    VSBY  WAVE   SWELL
                                AIR SEA DIR/SP/G                  HT/PER HT/PER
                 (UTC)          (F)     (DEG/KT/KT) (MB)    (MI)  (FT/S) (FT/S)
PORT ARANSAS     NOT AVBL
BUOY 90 E PORT A 1350            71 71  140/ 17/ 21 1015.1F         5/ 6
BUOY 200 E PT IS 1350            72 72  140/ 10/ 12 1017.4R         4/ 6   3/ 6
BUOY 15 E GALVES 1250            56 51  110/ 10/ 10 1016.6          3/ 6   3/ 6
$$




USA.gov is the U.S. government's official web portal to all federal, state and local government web resources and services.